Location: ??
(34.9170°N, 135.5016°E)
Time: 10:22:15
(UTC+00:00)

Tiros 1 - Visible Passes

Search period start: 01 March 2021 00:00
Search period end: 11 March 2021 00:00
Orbit: 630 x 664 km, 48.4° (Epoch: 01 March)

Date Brightness Start Highest point End Pass type
(mag) Time Alt. Az. Time Alt. Az. Time Alt. Az.
01 Mar 8.3 19:15:34 37° N 19:15:34 37° N 19:18:56 10° NE visible
01 Mar 9.0 20:54:07 10° NW 20:57:27 18° N 21:00:46 10° NNE visible
02 Mar 10.4 18:02:47 10° NE 18:02:47 10° NE 18:02:50 10° NE visible
02 Mar 8.5 19:40:27 26° NNW 19:40:38 26° NNW 19:44:42 10° NE visible
03 Mar 9.8 18:27:37 17° NE 18:27:37 17° NE 18:28:45 10° NE visible
03 Mar 9.0 20:05:16 15° NW 20:07:10 19° NNW 20:10:34 10° NNE visible
04 Mar 9.3 18:52:24 21° NNE 18:52:24 21° NNE 18:54:31 10° NE visible
04 Mar 9.3 20:30:52 10° NW 20:33:51 16° N 20:36:50 10° NE visible
05 Mar 9.1 19:17:10 19° N 19:17:10 19° N 19:20:21 10° NNE visible
05 Mar 9.3 20:57:24 10° NNW 21:00:33 17° N 21:03:41 10° NE visible
06 Mar 10.3 18:04:15 10° NE 18:04:15 10° NE 18:04:20 10° NE visible
06 Mar 9.3 19:41:54 14° NNW 19:43:34 16° N 19:46:34 10° NE visible
07 Mar 9.8 18:28:58 14° NNE 18:28:58 14° NNE 18:30:09 10° NNE visible
07 Mar 9.4 20:07:10 10° NNW 20:10:17 17° N 20:13:22 10° NE visible
08 Mar 9.5 18:53:42 16° N 18:53:42 16° N 18:56:18 10° NE visible
08 Mar 9.2 20:33:13 10° NNW 20:36:54 21° NNE 20:40:35 10° ENE visible
09 Mar 9.4 19:18:26 14° NNW 19:19:59 16° N 19:23:03 10° NE visible
10 Mar 10.1 18:05:33 12° NNE 18:05:33 12° NNE 18:06:02 10° NE visible
10 Mar 9.3 19:43:12 11° NNW 19:46:38 20° NNE 19:50:14 10° ENE visible
